Regional Weather Roundup
Issued by NWS Cleveland, OH

Home | Current Version | Previous Version | Text Only | Print | Product List | Glossary Off
Versions: 1 2 3 4 5 6 7 8 9 10 11 12 13 14 15 16 17 18 19 20 21 22 23 24 25 26 27 28 29 30 31 32 33 34 35 36 37 38 39 40 41 42 43 44 45 46 47 48 49 50

000
ASUS41 KCLE 302110
RWRCLE
OHIO REGIONAL WEATHER ROUNDUP
NATIONAL WEATHER SERVICE WILMINGTON, OH
500 PM EDT SAT MAY 30 2015

NOTE: "FAIR" INDICATES FEW OR NO CLOUDS BELOW 12,000 FEET WITH NO
SIGNIFICANT WEATHER AND/OR OBSTRUCTIONS TO VISIBILITY.

OHZ001>008-015>018-024>027-034-035-043-044-302200-
   NORTHWEST OHIO

CITY           SKY/WX    TMP DP  RH WIND       PRES   REMARKS
DEFIANCE       CLOUDY    77  67  71 CALM      29.94F
FINDLAY        MOSUNNY   79  67  66 E6        29.94F
TOLEDO EXPRESS MOSUNNY   78  66  66 SW5       29.94S
TOLEDO EXEC    PTSUNNY   82  66  58 W8        29.95F
LIMA           LGT RAIN  81  64  56 S16       29.94F
$$

OHZ009>014-019>023-028>033-038-089-302200-
   NORTHEAST OHIO

CITY           SKY/WX    TMP DP  RH WIND       PRES   REMARKS
CLE-HOPKINS    CLOUDY    80  65  59 NW12G25   29.96F
CLE-LAKEFRONT  PTSUNNY   78  65  63 NE3       29.93F
CUY CO. ARPT   PTSUNNY   81  70  69 SW7       29.98F
LORAIN-ELYRIA  CLOUDY    74  67  78 N9G21     29.96F
ASHTABULA      PTSUNNY   79  68  69 SW7       29.99F
AKRON-CANTON   PTSUNNY   83  67  58 S16G22    29.99F
WOOSTER        MOSUNNY   82  66  58 SW16      29.98F
MANSFIELD      MOSUNNY   82  66  58 SW12      29.97F
YOUNGSTOWN     LGT RAIN  75  68  78 W6        30.01F
$$

OHZ042-051>053-060>062-070>072-077>081-302200-
  SOUTHWEST OHIO

CITY           SKY/WX    TMP DP  RH WIND       PRES   REMARKS
CINC-COVINGTON PTSUNNY   81  71  71 SW6       29.98F
CINC-LUNKEN    PTSUNNY   81  66  60 SW10      29.96F
HAMILTON       TSTM      79  65  62 W14G28    29.98S
DAYTON         PTSUNNY   83  63  50 S15G26    29.97F
WRIGHT-PAT AFB PTSUNNY   83  69  61 S15G21    29.96F
DAYTON GENERAL MOSUNNY   83  64  52 S12G22    29.96F
WILMINGTON     PTSUNNY   80  69  69 SW10      29.98F
$$

OHZ036-037-039>041-045>050-054>059-063>069-073>076-082>088-302200-
  CENTRAL AND SOUTHEAST OHIO

CITY           SKY/WX    TMP DP  RH WIND       PRES   REMARKS
COLUMBUS       PTSUNNY   82  69  64 S3        29.97F
OSU AIRPORT    PTSUNNY   82  65  56 S15       29.96F
BOLTON FIELD   RAIN      72  66  83 SW35G44   30.01S
RICKENBACK AFB MOSUNNY   83  66  55 S17       29.98F
NEWARK         MOSUNNY   82  68  62 S10       29.99F
MARION         MOSUNNY   86  59  39 W14G21    29.96F
LANCASTER      MOSUNNY   83  66  56 S17       30.00F
ZANESVILLE     PTSUNNY   83  65  54 SW14G21   30.01F
NEW PHILLY     MOSUNNY   82  67  60 S6        30.01F
$$


USA.gov is the U.S. government's official web portal to all federal, state and local government web resources and services.